Weather in Iecava

Latvia     56°35′47″N   24°12′21″E
temp.,
°C
wind,
m/s
gust,
m/s
humid.,
%
clouds,
%
prec.,
mm/h
press.,
hPa
HPBL,
m
26 october, tue
tue2600:00+5s51372100 0.0 1019376
03:00+4s41077100 0.0 1018263
06:00+3s4882100 0.0 1017195
09:00+3s3883100 0.0 1016195
12:00+7ssw4769100 0.0 1015343
15:00+9sw586685 0.0 1014641
18:00+8ssw51076100 0.0 1013387
21:00+9sw61378100 0.1 1012690
27 october, wed
wed2700:00+9wsw51293100 1.9 1012590
03:00+9wsw5119429 2.0 1012466
06:00+8w61188100 0.0 1013660
09:00+8wsw5108410 0.0 1014710
12:00+10wsw61084100 0.0 1014750
15:00+10sw61187100 0.4 1013888
18:00+10sw81690100 2.4 1010953
21:00+11wsw81690100 2.8 10091049
28 october, thu
thu2800:00+12wsw81690100 0.3 1009996
03:00+12w61392100 0.6 1010743
06:00+12w61292100 0.1 1012842
09:00+12wnw4109085 0.3 1015426
12:00+13nw478197 0.1 1018670
15:00+13wnw3474100 0.1 1020754
18:00+12wsw2381100 0.0 102151
21:00+10ssw2393100 0.0 102256
29 october, fri
fri2900:00+12ssw379663 0.0 1022246
03:00+9sw389659 0.0 1023193
06:00+8ssw389565 0.0 1023158
09:00+8s3996100 0.0 1023191
12:00+12s5118288 0.0 1023420
15:00+14s5107321 0.0 1022640
18:00+12s5138822 0.0 1021387
21:00+12s6169028 0.0 1021499
30 october, sat
sat3000:00+11s6159160 0.0 1020523
03:00+10s5149199 0.0 1019435
06:00+9s51492100 0.0 1018419
09:00+9s6149051 0.0 1017448
12:00+11s612763 0.0 1017546
15:00+13ssw6116398 0.0 1016948
18:00+11ssw51266100 0.0 1016391
21:00+9ssw51270100 0.0 1016348